#timestamp,LO_Frequency,Hit 
1500872415.5,286047218.4,N
1500872435.3,286047215.8,N
1500872455.2,286047218.6,N
1500872475.0,286047219.4,N
1500872475.9,286047219.4,N
1500872495.8,286047219.7,N
1500872515.6,286047217.6,N
1500872535.4,286047217.6,N
1500872555.3,286047218.2,N
1500872575.1,286047217.5,N
1500872595.9,286047218.8,N
1500872615.7,286047218.3,N
1500872635.5,286047217.6,N
1500872655.4,286047215.7,N
1500872675.2,286047218.7,N
1500872695.0,286047218.2,N
1500872696.0,286047218.2,N
1500872715.8,286047218.4,N
1500872735.6,286047215.8,N
1500872755.5,286047215.7,N
1500872775.3,286047218.2,N
1500872795.1,286047217.8,N
1500872815.9,286047217.9,N
1500872835.7,286047218.8,N
1500872855.6,286047217.8,N
1500872875.4,286047220.4,N
1500872895.2,286047218.1,N
1500872915.1,286047217.3,N
1500872916.0,286047217.3,N
1500872935.8,286047218.3,N
1500872955.6,286047218.0,N
1500872975.5,286047218.1,N
1500872995.3,286047217.5,N
1500873015.2,286047220.0,N
1500873035.9,286047218.3,N
1500873055.7,286047218.7,N
1500873075.6,286047218.1,N
1500873095.4,286047217.7,N
1500873115.3,286047217.6,N
1500873135.1,286047217.5,N
1500873136.0,286047217.5,N
1500873155.8,286047219.4,N
1500873175.7,286047219.5,N
1500873195.5,286047217.4,N
1500873215.3,286047217.9,N
1500873235.2,286047218.7,N
1500873255.0,286047216.1,N
1500873255.9,286047216.1,N
1500873275.8,286047220.3,N
1500873295.6,286047217.8,N
1500873315.4,286047217.6,N
1500873335.3,286047218.6,N
1500873355.1,286047218.5,N
1500873375.9,286047218.7,N
1500873395.7,286047217.9,N
1500873415.5,286047220.1,N
1500873435.4,286047217.4,N
1500873455.2,286047220.1,N
1500873475.0,286047217.3,N
1500873475.9,286047216.7,N
1500873495.8,286047220.4,N
1500873515.6,286047220.1,N
1500873535.5,286047219.7,N
1500873555.3,286047219.2,N
1500873575.1,286047219.7,N
1500873595.9,286047219.5,N
1500873615.7,286047219.8,N
1500873635.5,286047220.1,N
1500873655.4,286047220.1,N
1500873675.2,286047220.4,N
1500873695.1,286047220.2,N
1500873696.0,286047220.2,N
1500873715.8,286047218.0,N
1500873735.6,286047218.1,N
1500873755.5,286047218.0,N
1500873775.3,286047215.9,N
1500873795.2,286047218.8,N
1500873815.9,286047216.0,N
1500873835.7,286047216.5,N
1500873855.6,286047216.2,N
1500873875.4,286047216.4,N
1500873895.2,286047216.7,N
1500873915.1,286047216.9,N
1500873916.0,286047216.9,N
1500873935.8,286047217.0,N
1500873955.7,286047214.3,N
1500873975.5,286047214.8,N
1500873995.3,286047215.2,N
1500874015.2,286047215.4,N
1500874035.0,286047213.2,N
1500874035.9,286047213.2,N
1500874055.8,286047213.8,N
1500874075.6,286047213.9,N
1500874095.4,286047210.9,N
1500874115.3,286047211.5,N
1500874135.1,286047211.5,N
1500874155.8,286047211.0,N
1500874175.7,286047210.9,N
1500874195.5,286047211.3,N
1500874215.4,286047211.6,N
1500874235.2,286047210.9,N
1500874255.0,286047212.1,N
1500874255.9,286047212.1,N
1500874275.8,286047212.4,N
1500874295.6,286047209.7,N
1500874315.5,286047211.5,N
1500874335.3,286047212.3,N
1500874355.1,286047209.3,N
1500874375.9,286047210.1,N
1500874395.7,286047208.1,N
1500874415.6,286047208.0,N
1500874435.4,286047208.0,N
1500874455.2,286047208.9,N
1500874475.1,286047206.1,N
1500874476.0,286047206.1,N
1500874495.8,286047208.4,N
1500874515.7,286047208.5,N
1500874535.5,286047208.4,N
1500874555.3,286047209.0,N
1500874575.2,286047208.9,N
1500874595.0,286047207.9,N
1500874595.9,286047207.9,N
1500874615.8,286047208.6,N
1500874635.6,286047208.5,N
1500874655.4,286047208.8,N
1500874675.3,286047208.8,N
1500874695.1,286047208.3,N
1500874715.9,286047208.8,N
1500874735.7,286047206.3,N
1500874755.5,286047209.2,N
1500874775.4,286047209.1,N
1500874795.2,286047206.9,N
1500874815.1,286047207.3,N
1500874816.0,286047207.3,N
1500874835.8,286047204.5,N
1500874855.6,286047205.4,N
1500874875.5,286047207.5,N
1500874895.3,286047207.2,N
1500874915.1,286047207.6,N
1500874935.9,286047207.2,N
1500874955.7,286047204.6,N
1500874975.6,286047206.0,N
1500874995.4,286047205.8,N
1500875015.2,286047205.6,N
1500875035.1,286047205.4,N
1500875036.0,286047205.4,N
1500875055.8,286047205.2,N
1500875075.7,286047205.0,N
1500875095.5,286047204.5,N
1500875115.3,286047204.5,N
1500875135.2,286047204.5,N
1500875155.0,286047204.6,N
1500875155.9,286047204.6,N
1500875175.7,286047207.4,N
1500875195.6,286047207.5,N
1500875215.4,286047204.6,N
1500875235.3,286047207.4,N
1500875255.1,286047207.3,N
1500875256.0,286047207.3,N
1500875275.8,286047207.6,N
1500875295.7,286047204.9,N
1500875315.5,286047205.3,N
1500875335.4,286047205.0,N
1500875355.2,286047206.0,N
1500875375.0,286047204.7,N
1500875375.9,286047204.7,N
1500875395.8,286047207.6,N
1500875415.6,286047205.3,N
1500875435.4,286047205.4,N
1500875455.3,286047204.7,N
1500875475.1,286047205.0,N
1500875495.9,286047205.4,N
1500875515.7,286047205.1,N
1500875535.5,286047205.6,N
1500875555.4,286047204.9,N
1500875575.2,286047205.6,N
1500875595.1,286047205.0,N
1500875596.0,286047205.0,N
1500875615.8,286047205.4,N
1500875635.6,286047205.3,N
1500875655.5,286047207.5,N
1500875675.3,286047206.4,N
1500875695.1,286047207.0,N
1500875715.9,286047207.4,N
1500875735.7,286047206.9,N
1500875755.6,286047206.1,N
1500875775.4,286047207.1,N
1500875795.2,286047209.1,N
1500875815.1,286047208.6,N
1500875816.0,286047208.6,N
1500875835.8,286047208.5,N
1500875855.7,286047210.4,N
1500875875.5,286047208.5,N
1500875895.3,286047209.2,N
1500875915.2,286047208.8,N
1500875935.0,286047209.1,N
1500875935.9,286047209.1,N
1500875955.7,286047210.4,N
1500875975.6,286047208.2,N
1500875995.4,286047208.9,N
